{"data":{"norad_id":66982,"intl_designator":"2025-288Z","name":"STARLINK-36113","alt_names":[],"object_type":"PAYLOAD","status":"ACTIVE","operator":null,"country":"US","launch_date":"2025-12-08","launch_site_code":"AFETR","launch_vehicle":null,"mission":null,"orbit_class":"UNKNOWN","rcs_meters":null,"size_class":null,"mass_kg":null,"dimensions":null,"purposes":["comms"],"wikipedia_slug":null,"has_3d_model":false,"image_url":null,"decayed_at":null,"tle_current":{"epoch":"2026-09-20T07:01:38.961984Z","epoch_age_seconds":99626,"freshness":"FRESH","line1":"1 66982U 25288Z   26263.29281206  .00012435  00000+0  46052-3 0  9999","line2":"2 66982  43.0018   4.0706 0001499 267.9153  92.1527 15.27587596 45057","mean_motion":15.27587596,"eccentricity":0.0001499,"inclination_deg":43.0018,"raan_deg":4.0706,"arg_perigee_deg":267.9153,"mean_anomaly_deg":92.1527,"bstar":0.00046052,"rev_number":4505,"period_min":94.266279967882,"perigee_km":481.99786259095,"apogee_km":484.05483936357,"semimajor_km":6861.1633509773,"source":"CELESTRAK","updated_at":"2026-09-21T09:00:36.066845Z"}}}